Find Starlink 31994

NORAD ID: 60588 Int'l Des: 2024-150 Owner: SPXS Country: US Constellation: starlink operational
LEOCIRCULAR

現在のビュー

3D地球を読み込み中...

About Starlink 31994

Starlink 31994 (NORAD 60588) is a starlink constellation satellite (v2 mini) launched Aug 20, 2024 by SPXS of US. It operates in LEO, CIRCULAR orbit with a mass of 730.00 kg.

Starlink 31994について

説明を読み込み中...

次回通過

Passes for default location (London). Set your location on the main map for personalized predictions.

高度履歴

Loading altitude history...

軌道要素

1 60588U 24150F 26175.24348784 .00013192 00000-0 40178-3 0 9999
2 60588 53.1583 170.0820 0001608 96.1209 263.9977 15.34327677104300
Epoch: Jun 24, 2026 • Age: 21 hours

現在のステータス

高度 465.0 km
速度 7.64 km/s
衛星直下点 36.19°N, 109.71°W
打ち上げ日 Aug 20, 2024
運用期間 1.8 years
タイプ internet

技術仕様

分類 Payload
質量 730.00 kg
乾燥質量 700.00 kg
総質量 730.00 kg
長さ 0.30 m
直径 4.10 m
スパン 29.00 m
形状 Box + pan
製造者 SPXS
バスタイプ Starlink V2M
フェーズステータス In Orbit
所有者/国 SPXS/US

Most Searched